Location: Hannington
(51.6333°N, 1.7500°W)
Time: 15:39:59
(UTC+00:00)

Daily predictions for brighter satellites

Satellite Brightness Start Highest point End
(mag) Time Altitude Azimuth Time Altitude Azimuth Time Altitude Azimuth
Nadezhda 4 Rocket 4.1 20:40:12 10° N 20:46:27 69° ENE 20:52:36 10° SSE
NOSS 3-4 (A) 3.4 20:41:25 10° SW 20:47:10 81° SE 20:53:29 10° NE
NOSS 3-4 (C) 3.4 20:41:29 10° SW 20:47:15 80° SE 20:53:33 10° NE
Cosmos 1697 Rocket 2.7 20:43:14 10° SSW 20:48:54 82° ESE 20:54:36 10° NNE
Cosmos 2360 4.2 20:49:00 10° SSW 20:54:41 85° ESE 21:00:25 10° NNE
Cosmos 2297 Rocket 4.1 20:50:13 10° NW 20:54:41 25° WSW 20:59:09 10° SSW
ATLAS CENTAUR R/B 3.7 20:50:43 10° NNW 20:54:42 24° NNE 20:58:39 10° ENE
USA 267 4.0 20:49:37 10° ENE 20:55:59 56° N 21:02:22 10° WNW
Cosmos 44 Rocket 3.5 20:51:43 10° NW 20:56:26 63° NE 21:01:06 10° SE
ARIANE 5 R/B 3.8 20:54:15 10° SE 20:58:10 30° ENE 21:02:07 10° N
MetOp-B 4.3 20:54:14 10° SSE 20:59:35 81° WSW 21:05:00 10° NNW
Cosmos 158 Rocket 4.3 20:59:05 10° NNW 21:04:08 58° ENE 21:09:18 10° SE
Cosmos 1184 Rocket 2.6 21:01:44 10° SSW 21:04:45 84° W 21:07:48 10° NNE
ATLAS 3B R/B 3.2 20:58:01 10° NW 21:05:14 64° NE 21:12:46 10° ESE
Meteor 2-9 Rocket 4.3 20:59:56 10° N 21:05:46 80° ENE 21:11:25 10° SSE
Cosmos 1975 3.4 21:05:52 10° N 21:09:47 43° ENE 21:13:33 11° SE
Timation 2 Rocket 4.4 21:03:20 10° NW 21:09:50 67° WSW 21:16:32 10° SSE
Cosmos 2026 Rocket 4.3 21:04:47 10° N 21:10:50 54° ENE 21:16:56 10° SSE
Cosmos 389 Rocket 3.7 21:07:54 10° NNW 21:11:11 39° W 21:14:28 10° SSW
Cosmos 1503 Rocket 4.0 21:10:13 10° SSW 21:15:29 80° ESE 21:20:52 10° NNE
CZ-4B R/B 2.8 21:12:56 10° N 21:15:59 39° WNW 21:18:57 10° SW
CZ-4C R/B 4.1 21:10:48 10° NW 21:16:37 36° NNE 21:23:37 10° E
Meteor 1-4 Rocket 4.5 21:14:32 10° NNE 21:16:54 17° ENE 21:19:17 10° ESE
Cosmos 1933 Rocket 4.5 21:12:50 10° NNW 21:17:10 49° W 21:21:27 10° SSW
BREEZE-M (TANK) 4.2 21:13:06 10° WSW 21:17:27 73° SSE 21:36:12 10° E
ERS-1 Rocket 3.1 21:12:41 10° SSE 21:17:40 68° ENE 21:22:42 10° N
SL-16 R/B 3.4 21:13:48 10° SSE 21:18:13 24° ESE 21:22:39 10° NE
Cosmos 1538 Rocket 4.3 21:14:18 10° NNW 21:19:30 57° ENE 21:24:18 12° SE
CZ-2C R/B 4.3 21:18:23 10° NNE 21:22:57 44° E 21:27:30 10° S
Helios 1A Rocket 2.9 21:19:14 10° SSE 21:23:14 80° WSW 21:27:16 10° NNW
Cosmos 1733 Rocket 3.8 21:19:48 10° N 21:24:01 40° ENE 21:27:44 13° SE
Cosmos 1340 4.1 21:27:33 10° SW 21:31:05 39° WNW 21:34:39 10° N
SJ 16-02 1.3 21:28:24 10° SSW 21:32:46 80° ESE 21:37:10 10° NNE
Meteor 1-18 Rocket 4.3 21:27:51 10° S 21:33:29 63° E 21:39:02 10° NNE
Cosmos 2292 Rocket 2.5 21:32:47 10° N 21:35:52 88° ENE 21:38:16 15° S
Cosmos 2278 3.7 21:32:50 10° SSW 21:38:26 68° ESE 21:44:07 10° NE
Cosmos 2034 Rocket 4.2 21:32:12 10° SSW 21:38:30 76° WNW 21:44:54 10° N
ASTRO F (AKARI) 4.2 21:37:45 15° SSE 21:40:15 83° WSW 21:43:27 10° NNW
Cosmos 1862 Rocket 4.5 21:37:31 14° SSE 21:40:47 34° E 21:44:51 10° NNE
BREEZE M DEB (TANK) 4.3 21:37:14 10° W 21:41:20 46° SSW 21:55:19 10° SE
BREEZE-M DEB (TANK) 4.4 21:37:52 10° W 21:42:10 77° S 21:59:23 10° E
Cosmos 1726 4.3 21:40:27 10° NNE 21:42:42 15° ENE 21:44:57 10° ESE
Cosmos 2360 Rocket 3.7 21:40:42 13° SE 21:43:28 18° E 21:47:11 10° ENE
Cosmos 2263 Rocket 2.6 21:38:46 10° NW 21:44:14 55° WSW 21:49:11 12° S
NOSS 2-1 (C) 3.7 21:46:44 13° S 21:49:04 29° SE 21:51:56 10° ENE
SPOT 5 3.4 21:45:44 10° S 21:50:56 61° WSW 21:56:00 10° NNW
Terra 1.9 21:47:56 14° S 21:52:07 79° WSW 21:56:55 10° NNW
Cosmos 1441 Rocket 4.1 21:51:03 18° SE 21:53:06 30° E 21:56:24 10° NNE
Resurs 01 Rocket 4.1 21:50:38 10° SW 21:53:28 17° W 21:56:19 10° NW
Cosmos 1346 Rocket 2.9 21:50:23 14° S 21:53:42 59° E 21:57:40 10° NNE
Cosmos 2279 Rocket 4.2 21:53:30 14° SSE 21:58:42 55° E 22:04:45 10° NNE
Cosmos 1680 Rocket 4.3 21:54:07 10° NNW 21:59:14 45° ENE 22:03:25 15° SE
NOSS 2-1 (D) 3.3 21:56:58 13° SSW 21:59:30 36° SE 22:02:31 10° ENE
USA 215 4.4 21:55:48 10° ENE 22:00:39 22° SE 22:03:42 16° SSE
Iridium 2 3.9 21:58:21 10° N 22:02:03 55° E 22:04:23 21° SSE
Cosmos 1818 4.0 22:01:55 10° NW 22:07:21 58° NE 22:12:08 13° ESE
Iridium 4 Rocket 4.3 22:06:40 10° NNE 22:10:46 32° ENE 22:13:44 17° SE
Cosmos 2228 Rocket 4.0 22:07:56 10° SSW 22:12:21 48° WNW 22:16:47 10° N
SL-24 R/B - RUBIN 2 4.4 22:08:33 10° NW 22:12:40 40° WSW 22:15:32 18° S
Cosmos 1378 3.8 22:09:11 10° SSW 22:12:45 52° WNW 22:16:21 10° N
ISS -2.2 22:10:50 10° W 22:13:28 21° SW 22:14:21 19° SSW
Cosmos 1980 Rocket 3.1 22:08:36 10° SW 22:14:05 51° NW 22:19:39 10° NNE
Cosmos 1898 Rocket 4.5 22:11:50 19° SSE 22:14:41 30° E 22:19:17 10° NE
Okean 1-7 4.0 22:17:25 20° SE 22:19:37 32° E 22:23:30 10° NNE
Cosmos 2322 Rocket 2.4 22:18:02 16° S 22:22:23 50° ESE 22:27:48 10° NE
Cosmos 1844 Rocket 2.7 22:18:21 10° NNW 22:23:59 77° ENE 22:27:56 20° SE
Cosmos 1805 3.2 22:22:21 10° N 22:26:17 83° ENE 22:28:28 25° SSE
RESURS DK-1 3.4 22:22:45 10° SW 22:26:45 48° NW 22:30:46 10° NNE
Cosmos 2333 Rocket 3.5 22:25:18 18° SE 22:27:34 23° ESE 22:31:52 10° NE
Meteor 2-4 Rocket 4.1 22:23:08 10° SSW 22:28:52 64° WNW 22:34:27 10° N
Cosmos 1461 4.3 22:26:06 10° NNW 22:29:52 34° NE 22:33:44 10° ESE
BREEZE-M DEB (TANK) 3.2 22:28:43 10° WSW 22:31:00 27° SSW 22:31:52 24° S
ATLAS 2AS CENTAUR R/B 3.2 22:25:38 10° SW 22:33:27 77° NW 22:40:56 10° NE
ATLAS CENTAUR R/B 2.0 22:29:27 10° NW 22:34:21 67° NE 22:37:50 18° SE
ARIANE 5 R/B 3.7 22:31:11 15° SSW 22:34:31 39° W 22:38:46 10° NNW
Cosmos 1707 Rocket 4.4 22:31:23 10° SSW 22:35:41 49° WNW 22:39:59 10° N
USA 267 3.5 22:32:10 10° ESE 22:38:42 74° NNE 22:45:14 10° WNW
Cosmos 1733 3.3 22:35:38 10° NNW 22:39:25 70° W 22:41:23 26° S
Cosmos 1766 3.4 22:37:31 10° N 22:41:27 66° ENE 22:43:23 28° SSE
Cosmos 2219 Rocket 3.5 22:44:48 19° SE 22:46:53 24° ESE 22:51:16 10° NE
Cosmos 1844 3.7 22:41:52 10° NNW 22:47:42 87° WSW 22:51:27 23° SSE
Cosmos 1703 Rocket 3.7 22:48:15 27° SSE 22:50:32 58° E 22:54:54 10° NNE
Meteor 1-4 Rocket 3.3 22:48:38 10° NNW 22:51:57 42° W 22:53:35 24° SSW
Cosmos 2344 4.3 22:45:01 10° WSW 22:52:14 57° NNW 23:00:22 10° NE
ATLAS 3B R/B 3.5 22:48:58 10° NW 22:55:53 45° WSW 23:00:39 21° S
NOSS 2-1 (E) 3.0 22:55:33 10° SW 22:58:43 68° NW 23:02:07 10° NE
NOSS 3-1 (A) 4.3 22:52:32 10° NW 22:59:32 65° NE 23:07:56 10° ESE
Cosmos 1655 Rocket 4.0 22:53:49 10° NNW 23:00:07 83° W 23:04:10 23° S
SL-16 R/B 2.5 22:56:09 10° SW 23:01:48 71° WNW 23:07:31 10° NNE
Cosmos 1707 4.3 23:00:36 20° ESE 23:01:49 23° E 23:04:56 10° NE
Cosmos 1782 Rocket 3.5 22:58:18 10° N 23:02:41 76° E 23:04:50 30° SSE
Cosmos 2237 4.2 22:58:24 14° SSW 23:03:26 88° ESE 23:09:13 10° NNE
Meteor 2-10 4.3 23:00:34 10° NNW 23:05:47 59° W 23:08:49 24° SSW
ERS-2 3.2 23:02:49 10° NE 23:06:01 29° E 23:06:52 26° ESE
CZ-4C R/B 3.1 22:59:19 10° NW 23:06:13 74° NE 23:14:17 11° SE
NOSS 3-1 (C) 4.0 22:59:44 10° NW 23:06:56 89° WSW 23:14:02 16° SE
Cosmos 1356 4.2 23:08:13 22° SW 23:10:00 44° WNW 23:13:12 10° N
SJ 16-02 4.1 23:08:55 10° W 23:11:54 18° NW 23:14:55 10° N
Cosmos 1908 Rocket 4.1 23:09:22 10° NNW 23:13:33 48° W 23:15:46 25° SSW
Gblst 52 Del rocket 4.4 23:07:41 10° SW 23:13:57 54° SSE 23:19:33 10° ENE
Meteor 1-15 Rocket 4.4 23:11:26 10° NNW 23:17:02 67° W 23:20:25 25° S
Cosmos 2237 Rocket 4.3 23:15:13 10° ESE 23:17:04 12° E 23:18:53 10° ENE
Cosmos 1470 2.8 23:13:37 10° N 23:17:30 67° ENE 23:19:01 34° SSE
Cosmos 1726 2.5 23:14:26 10° NNW 23:18:03 54° W 23:19:26 32° SSW
Cosmos 1300 Rocket 3.8 23:14:29 10° N 23:18:49 61° ENE 23:20:51 29° SSE
COSMOS 2428 3.7 23:17:53 23° SE 23:20:09 31° ESE 23:25:03 10° NE
STPSAT 2 (USA 217) 4.5 23:18:33 26° SSW 23:21:04 82° ESE 23:25:36 10° NNE
Cosmos 2242 Rocket 3.6 23:21:24 29° S 23:23:46 88° W 23:28:20 10° N
ALOS 2 2.6 23:22:00 31° SSE 23:24:05 86° ENE 23:28:31 10° NNW
Cosmos 1242 Rocket 3.4 23:21:17 10° N 23:24:42 39° ENE 23:26:07 27° ESE
Okean 2 Rocket 4.0 23:21:21 10° N 23:25:40 41° ENE 23:28:05 23° SE
Cosmos 1937 Rocket 3.5 23:22:46 25° SSW 23:25:54 79° ESE 23:31:14 10° NNE
Cosmos 2360 Rocket 2.2 23:22:25 18° SSW 23:26:42 89° WNW 23:32:24 10° NNE
Terra 4.3 23:28:49 10° WSW 23:30:41 12° W 23:32:31 10° WNW
Cosmos 2333 4.2 23:29:02 26° S 23:32:15 66° ESE 23:37:52 10° NE
Cosmos 1908 4.4 23:29:37 10° N 23:33:05 33° ENE 23:34:48 22° ESE
Cosmos 1867 4.4 23:33:44 27° SSE 23:35:38 35° ESE 23:40:34 10° NE
Cosmos 1626 3.4 23:37:36 24° ESE 23:38:36 27° E 23:41:44 10° NNE
Cosmos 1842 3.3 23:38:57 33° SSW 23:40:33 73° W 23:44:27 10° N
Meteor 2-17 Rocket 4.5 23:35:59 10° NNW 23:42:11 80° W 23:45:46 27° S
Cosmos 1953 4.0 23:39:04 10° N 23:42:29 26° ENE 23:44:46 16° ESE
Cosmos 2278 Rocket 2.8 23:38:30 10° NNW 23:44:06 54° NE 23:48:50 14° SE
USA 215 3.2 23:38:03 10° ENE 23:44:34 63° SE 23:51:00 10° SW
Cosmos 1818 4.4 23:45:50 10° NW 23:50:43 34° WSW 23:52:45 26° SSW
Iridium 4 Rocket 4.4 23:46:37 10° NNW 23:50:44 34° W 23:53:30 19° SW
Cosmos 1674 3.2 23:50:45 34° SE 23:51:51 45° E 23:55:29 10° NNE
Sich 1 Rocket 3.5 23:47:38 10° N 23:52:04 88° E 23:54:00 34° SSE
